IW4EGP-3 Weather Reports


time (UTC)temp
C
wind
direction
speed
KPH
gust
KPH
rain 1hr
cm
rain 24hr
cm
rain mn
cm
humidity
%
barometer
mb
20260906064507 26 260 4.8 6.4 0.00 0.00 0.00 56 1022.1
20260906063041 26 253 4.8 8.0 0.00 0.00 0.00 57 1022.2
20260906063008 26 253 4.8 8.0 0.00 0.00 0.00 57 1022.2
20260906061508 25 253 6.4 9.7 0.00 0.00 0.00 58 1022.2
20260906060008 25 247 6.4 9.7 0.00 0.00 0.00 58 1022.0
20260906054544 25 245 9.7 11.3 0.00 0.00 0.00 59 1021.7
20260906054506 25 245 9.7 11.3 0.00 0.00 0.00 59 1021.7
20260906053006 25 246 8.0 11.3 0.00 0.00 0.00 59 1021.6
20260906051507 25 251 9.7 11.3 0.00 0.00 0.00 59 1021.6
20260906050007 25 251 11.3 11.3 0.00 0.00 0.00 58 1021.4
20260906044558 24 252 9.7 9.7 0.00 0.00 0.00 56 1021.2
20260906044507 24 252 9.7 9.7 0.00 0.00 0.00 56 1021.2
20260906043008 24 254 9.7 11.3 0.00 0.00 0.00 56 1021.1
20260906041508 23 252 9.7 11.3 0.00 0.00 0.00 58 1021.0
20260906040007 23 244 6.4 8.0 0.00 0.00 0.00 60 1020.9
20260906034509 22 247 6.4 8.0 0.00 0.00 0.00 63 1020.7
20260906033008 22 248 3.2 4.8 0.00 0.00 0.00 62 1020.7
20260906031507 22 256 1.6 6.4 0.00 0.00 0.00 63 1020.5
20260906030009 22 271 4.8 8.0 0.00 0.00 0.00 62 1020.5
20260906024506 22 291 6.4 8.0 0.00 0.00 0.00 65 1020.7
20260906023009 24 258 6.4 8.0 0.00 0.00 0.00 57 1020.4
20260906021507 25 249 8.0 9.7 0.00 0.00 0.00 57 1020.0
20260906020041 24 253 11.3 12.9 0.00 0.00 0.00 57 1020.0
20260906020009 24 253 11.3 12.9 0.00 0.00 0.00 57 1020.0
20260906014544 25 251 8.0 9.7 0.00 0.00 0.00 57 1019.9
20260906014511 25 251 8.0 9.7 0.00 0.00 0.00 57 1019.9
20260906013008 24 235 3.2 6.4 0.00 0.00 0.00 57 1019.8
20260906011509 23 213 0.0 3.2 0.00 0.00 0.00 58 1020.0
20260906010016 25 244 3.2 8.0 0.00 0.00 0.00 53 1019.9
20260906004508 26 253 9.7 11.3 0.00 0.00 0.00 52 1019.8
20260906003007 25 230 1.6 3.2 0.00 0.00 0.00 52 1019.7
20260906001509 25 245 1.6 6.4 0.00 0.00 0.00 52 1019.9
20260906000008 26 247 6.4 9.7 0.00 0.00 0.00 50 1019.7
20260905234507 26 248 4.8 6.4 0.00 0.00 0.00 50 1019.7
20260905233008 26 248 1.6 4.8 0.00 0.00 0.00 49 1019.9
20260905231506 26 252 4.8 4.8 0.00 0.00 0.00 48 1019.7
20260905230006 26 0 0.0 0.0 0.00 0.00 0.00 55 1020.0
20260905224506 27 270 1.6 1.6 0.00 0.00 0.00 53 1019.7
20260905223008 26 248 0.0 1.6 0.00 0.00 0.00 55 1019.6
20260905221508 26 0 0.0 0.0 0.00 0.00 0.00 49 1019.7
20260905220006 26 270 0.0 1.6 0.00 0.00 0.00 54 1019.3
20260905214506 27 0 0.0 0.0 0.00 0.00 0.00 49 1019.4
20260905213007 27 0 0.0 0.0 0.00 0.00 0.00 46 1019.3
20260905211507 27 270 0.0 1.6 0.00 0.00 0.00 45 1019.4
20260905210006 27 270 0.0 1.6 0.00 0.00 0.00 44 1019.2
20260905204508 27 270 0.0 3.2 0.00 0.00 0.00 45 1019.2
20260905203007 27 270 1.6 3.2 0.00 0.00 0.00 45 1019.2
20260905201506 27 1 0.0 1.6 0.00 0.00 0.00 45 1019.3
20260905200009 28 270 0.0 0.0 0.00 0.00 0.00 42 1019.2
20260905194554 27 274 1.6 4.8 0.00 0.00 0.00 45 1019.1
20260905194507 27 274 1.6 4.8 0.00 0.00 0.00 45 1019.1
20260905193009 28 117 4.8 9.7 0.00 0.00 0.00 42 1019.0
20260905191507 28 111 9.7 12.9 0.00 0.00 0.00 42 1018.7
20260905190010 28 113 12.9 14.5 0.00 0.00 0.00 43 1018.6
20260905184507 28 114 11.3 12.9 0.00 0.00 0.00 46 1018.6
20260905183010 28 113 8.0 9.7 0.00 0.00 0.00 46 1018.6
20260905181550 28 105 8.0 9.7 0.00 0.00 0.00 46 1018.3
20260905181512 28 105 8.0 9.7 0.00 0.00 0.00 46 1018.3
20260905180047 29 95 8.0 9.7 0.00 0.00 0.00 45 1018.1
20260905180013 29 95 8.0 9.7 0.00 0.00 0.00 45 1018.1
20260905174552 29 94 8.0 9.7 0.00 0.00 0.00 42 1018.1
20260905174507 29 94 8.0 9.7 0.00 0.00 0.00 42 1018.1
20260905173009 29 94 11.3 14.5 0.00 0.00 0.00 41 1017.6
20260905171509 30 90 12.9 14.5 0.00 0.00 0.00 40 1017.9
20260905170006 30 97 17.7 19.3 0.00 0.00 0.00 39 1017.5
20260905164541 30 108 12.9 17.7 0.00 0.00 0.00 37 1017.7
20260905164508 30 108 12.9 17.7 0.00 0.00 0.00 37 1017.7
20260905163059 30 107 17.7 20.9 0.00 0.00 0.00 37 1017.7
20260905163008 30 107 17.7 20.9 0.00 0.00 0.00 37 1017.7
20260905161507 30 106 17.7 19.3 0.00 0.00 0.00 34 1017.5
20260905160009 31 103 17.7 24.1 0.00 0.00 0.00 34 1017.4
20260905154505 31 100 17.7 19.3 0.00 0.00 0.00 33 1017.3
20260905153008 31 106 17.7 22.5 0.00 0.00 0.00 34 1017.4
20260905151507 31 104 16.1 20.9 0.00 0.00 0.00 35 1017.3
20260905150008 31 103 14.5 19.3 0.00 0.00 0.00 38 1017.4
20260905144507 31 100 14.5 19.3 0.00 0.00 0.00 36 1017.4
20260905143006 32 92 11.3 14.5 0.00 0.00 0.00 36 1017.6
20260905141508 32 89 9.7 14.5 0.00 0.00 0.00 36 1017.6
20260905140005 33 104 11.3 14.5 0.00 0.00 0.00 34 1017.5
20260905134506 32 90 9.7 19.3 0.00 0.00 0.00 31 1017.8
20260905133008 33 87 9.7 14.5 0.00 0.00 0.00 31 1017.7
20260905131509 33 82 8.0 14.5 0.00 0.00 0.00 32 1017.9
20260905130009 33 72 8.0 12.9 0.00 0.00 0.00 30 1018.0
20260905124614 33 92 9.7 14.5 0.00 0.00 0.00 31 1017.8
20260905124510 33 92 9.7 14.5 0.00 0.00 0.00 31 1017.8
20260905123010 33 93 11.3 19.3 0.00 0.00 0.00 33 1018.0
20260905121508 33 77 9.7 17.7 0.00 0.00 0.00 31 1018.1
20260905120058 32 79 11.3 16.1 0.00 0.00 0.00 32 1018.3
20260905120011 32 79 11.3 16.1 0.00 0.00 0.00 32 1018.3
20260905114507 32 78 12.9 16.1 0.00 0.00 0.00 33 1018.4
20260905113051 33 37 9.7 14.5 0.00 0.00 0.00 31 1018.4
20260905113008 33 37 9.7 14.5 0.00 0.00 0.00 31 1018.4
20260905111507 32 94 14.5 22.5 0.00 0.00 0.00 35 1018.4
20260905110006 33 48 8.0 11.3 0.00 0.00 0.00 32 1018.2
20260905104507 33 65 9.7 16.1 0.00 0.00 0.00 35 1018.4
20260905103043 32 26 9.7 16.1 0.00 0.00 0.00 36 1018.3
20260905103007 32 26 9.7 16.1 0.00 0.00 0.00 36 1018.3
20260905101508 32 77 9.7 11.3 0.00 0.00 0.00 36 1018.7
20260905100006 32 74 6.4 11.3 0.00 0.00 0.00 42 1018.7
20260905094506 32 54 8.0 14.5 0.00 0.00 0.00 36 1018.5
20260905093007 33 26 8.0 12.9 0.00 0.00 0.00 33 1018.4
20260905091508 33 59 6.4 11.3 0.00 0.00 0.00 30 1018.6
20260905090008 32 316 6.4 9.7 0.00 0.00 0.00 28 1018.2
20260905084508 32 23 6.4 9.7 0.00 0.00 0.00 29 1018.1
20260905083008 33 342 4.8 9.7 0.00 0.00 0.00 34 1018.0
20260905081507 32 332 6.4 11.3 0.00 0.00 0.00 33 1017.7
20260905080008 33 43 3.2 4.8 0.00 0.00 0.00 30 1017.9
20260905074548 33 201 3.2 8.0 0.00 0.00 0.00 30 1017.8
20260905074507 33 201 3.2 8.0 0.00 0.00 0.00 30 1017.8
20260905073054 32 101 1.6 3.2 0.00 0.00 0.00 32 1017.4
20260905073008 32 101 1.6 3.2 0.00 0.00 0.00 32 1017.4
20260905071542 31 106 1.6 4.8 0.00 0.00 0.00 35 1017.6
20260905071508 31 106 1.6 4.8 0.00 0.00 0.00 35 1017.6
20260905070110 30 110 1.6 4.8 0.00 0.00 0.00 34 1017.6
20260905070008 30 110 1.6 4.8 0.00 0.00 0.00 34 1017.6